Tracking 27126 objects as of 31-Mar-2023
HD Live streaming from Space Station
objects crossing your sky now

COSMOS 1455

Track COSMOS 1455 now!
10-day predictions
COSMOS 1455 is classified as:


NORAD ID: 14032
Int'l Code: 1983-037A
Perigee: 487.0 km
Apogee: 509.2 km
Inclination: 82.5 °
Period: 94.4 minutes
Semi major axis: 6869 km
RCS: 6.2678 m2 (large)
Launch date: April 23, 1983
Source: Commonwealth of Independent States (former USSR) (CIS)
Launch site: PLESETSK MISSILE AND SPACE COMPLEX (PKMTR)
Your satellite tracking list
Your tracking list is empty




NASA's NSSDC Master Catalog

Two Line Element Set (TLE):
1 14032U 83037A   23089.46546606  .00015773  00000-0  62927-3 0  9992
2 14032  82.5136 155.7921 0016210 123.1449 237.1347 15.24938018181986
Source of the keplerian elements: AFSPC